Date,TemperatureHighF,TemperatureAvgF,TemperatureLowF,DewpointHighF,DewpointAvgF,DewpointLowF,HumidityHigh,HumidityAvg,HumidityLow,PressureMaxIn,PressureMinIn,WindSpeedMaxMPH,WindSpeedAvgMPH,GustSpeedMaxMPH,PrecipitationSumIn
2013-1-1,38,31,23,36,29,20,93,92,89,30.43,30.19,5,2,11,0.00
2013-1-2,34,25,15,26,20,13,99,85,62,30.47,30.37,5,1,7,0.00
2013-1-3,42,30,20,32,24,17,91,79,54,30.63,30.45,6,1,10,0.01
2013-1-4,48,33,21,30,24,18,92,72,40,30.64,30.49,7,2,11,0.00
2013-1-5,44,37,29,35,30,23,92,76,69,30.49,30.32,13,4,22,0.00
2013-1-6,44,33,25,32,25,20,91,73,47,30.55,30.39,5,1,13,0.00
2013-1-7,51,38,26,31,26,21,82,64,43,30.51,30.27,13,4,18,0.00
2013-1-8,56,44,32,46,35,25,91,73,54,30.34,30.19,14,4,18,0.21
2013-1-9,55,51,47,47,43,38,92,77,56,30.47,30.32,15,5,27,0.05
2013-1-10,58,52,48,54,47,39,89,85,61,30.33,29.91,13,6,24,0.18
2013-1-11,66,56,46,48,46,42,92,71,50,30.00,29.82,17,10,26,0.00
2013-1-12,59,42,27,51,35,25,90,78,47,30.13,29.91,11,4,21,0.59
2013-1-13,27,22,15,25,19,12,90,87,83,30.56,30.12,0,0,0,0.00
2013-1-14,32,22,13,23,17,11,89,81,65,30.68,30.52,1,0,5,0.01
2013-1-15,33,25,18,24,18,15,89,78,49,30.52,30.35,3,0,8,0.00
2013-1-16,42,29,16,24,20,13,89,71,41,30.39,30.28,5,1,9,0.03
2013-1-17,48,36,27,34,26,20,85,69,45,30.65,30.38,8,1,17,0.00
2013-1-18,55,39,29,34,29,24,84,69,40,30.67,30.42,16,5,23,0.00
2013-1-19,62,48,39,40,35,30,77,60,41,30.34,30.20,14,6,19,0.00
2013-1-20,61,45,29,37,30,19,76,57,38,30.43,30.25,8,2,17,0.00
2013-1-21,38,29,22,19,16,13,75,60,42,30.56,30.42,6,1,12,0.00
2013-1-22,47,33,21,28,22,15,77,65,47,30.50,30.36,8,1,13,0.00
2013-1-23,62,44,30,44,35,23,84,72,51,30.42,30.28,7,2,15,0.00
2013-1-24,43,38,36,34,24,19,88,57,46,30.45,30.24,10,4,18,0.00
2013-1-25,47,38,33,34,32,29,91,77,57,30.42,30.25,4,1,13,0.00
2013-1-26,60,46,33,30,27,22,82,49,27,30.42,30.25,8,2,14,0.00
2013-1-27,60,54,46,56,49,30,88,83,51,30.25,30.01,17,11,27,0.01
2013-1-28,72,67,60,63,61,56,86,81,69,30.06,29.88,18,13,27,0.00
2013-1-29,69,60,44,63,55,42,91,86,71,29.88,29.55,16,8,27,2.11
2013-1-30,45,33,23,42,28,19,92,83,73,30.22,29.65,14,6,28,0.01
2013-1-31,45,29,19,31,22,11,88,75,52,30.63,30.18,11,3,20,0.00
2013-2-1,44,27,13,20,14,7,80,60,36,30.64,30.36,5,1,11,0.00
2013-2-2,52,40,28,34,27,19,75,62,46,30.43,30.34,6,1,12,0.00
2013-2-3,53,44,34,31,28,24,76,53,35,30.44,30.09,7,2,21,0.00
2013-2-4,61,50,38,47,37,28,81,62,41,30.09,29.95,16,5,25,0.05
2013-2-5,64,47,34,49,36,30,88,68,35,30.19,30.04,6,1,15,0.00
2013-2-6,65,52,42,44,38,33,77,60,44,30.22,30.05,11,5,19,0.00
2013-2-7,56,51,43,52,48,39,90,87,77,30.23,29.98,9,5,21,0.10
2013-2-8,52,42,34,39,33,30,87,74,49,30.43,30.23,8,2,16,0.00
2013-2-9,48,41,35,44,35,31,89,78,57,30.35,29.92,15,7,27,0.12
2013-2-10,59,52,40,51,38,28,89,63,35,30.17,29.75,14,8,23,0.08
2013-2-11,50,39,29,30,27,24,83,64,39,30.35,30.17,5,1,14,0.00
2013-2-12,46,38,33,35,30,26,90,74,54,30.30,30.06,7,1,13,0.07
2013-2-13,51,39,34,38,33,31,92,80,52,30.17,30.08,8,2,14,0.13
2013-2-14,55,43,31,37,32,26,83,66,47,30.32,30.10,6,2,15,0.00
2013-2-15,44,34,23,32,22,15,82,64,39,30.50,30.32,9,3,19,0.00
2013-2-16,31,29,24,26,23,18,86,79,67,30.47,30.44,7,2,22,0.00
2013-2-17,64,48,31,36,28,16,63,46,32,30.28,29.93,14,7,22,0.00
2013-2-18,59,50,34,54,40,26,86,67,44,30.26,29.71,21,12,31,0.07
2013-2-19,44,34,22,26,22,17,88,64,43,30.49,30.26,8,2,17,0.00
2013-2-20,37,32,29,31,23,14,88,69,50,30.47,30.22,7,2,16,0.09
2013-2-21,37,34,30,34,31,26,91,88,82,30.22,29.83,11,3,18,0.02
2013-2-22,36,28,22,32,22,18,88,77,58,30.31,30.02,10,3,21,0.00
2013-2-23,45,31,20,27,22,17,90,72,45,30.29,30.13,5,0,9,0.00
2013-2-24,59,44,30,39,31,24,79,62,41,30.15,29.95,10,3,18,0.00
2013-2-25,42,39,35,37,34,30,92,82,65,30.01,29.58,12,5,24,0.60
2013-2-26,36,34,33,33,31,31,92,90,86,30.06,29.55,11,3,19,0.20
2013-2-27,40,35,32,33,30,27,89,82,72,30.25,30.03,11,3,22,0.05
2013-2-28,36,33,30,29,28,26,92,81,75,30.37,30.24,8,3,14,0.00
2013-3-1,33,30,27,27,24,21,83,77,68,30.45,30.34,10,4,18,0.00
2013-3-2,38,29,22,25,22,18,89,74,51,30.53,30.38,7,2,14,0.00
2013-3-3,57,43,27,35,28,22,80,58,39,30.38,29.88,12,4,19,0.00
2013-3-4,65,55,43,48,41,32,77,59,47,29.99,29.70,13,6,24,0.00
2013-3-5,45,38,31,35,27,20,90,66,45,30.49,30.01,14,9,29,0.12
2013-3-6,48,34,24,27,22,19,82,64,42,30.58,30.45,8,2,14,0.00
2013-3-7,61,49,36,33,30,26,68,49,30,30.41,30.26,11,3,18,0.00
2013-3-8,61,53,44,41,37,32,66,54,45,30.34,30.14,11,5,19,0.00
2013-3-9,65,58,52,57,49,37,89,71,51,30.14,29.76,14,7,24,0.63
2013-3-10,56,45,30,53,41,26,92,89,84,30.11,29.74,13,5,23,0.42
2013-3-11,46,35,28,29,25,21,85,69,38,30.20,30.08,10,3,19,0.00
2013-3-12,55,43,29,34,28,23,84,59,36,30.49,30.19,9,2,21,0.00
2013-3-13,53,39,26,25,22,20,82,53,28,30.63,30.48,3,0,10,0.00
2013-3-14,72,53,39,46,35,22,68,50,36,30.50,30.22,14,4,20,0.00
2013-3-15,78,63,48,52,47,42,81,57,33,30.22,29.86,15,7,25,0.00
2013-3-16,72,61,47,53,47,39,78,60,48,29.95,29.83,12,5,20,0.00
2013-3-17,47,44,41,44,41,38,91,89,73,29.98,29.80,11,3,24,0.15
2013-3-18,55,46,37,43,38,30,91,76,40,30.19,29.81,10,3,19,0.01
2013-3-19,57,44,33,31,26,17,78,53,24,30.41,30.15,9,2,19,0.00
2013-3-20,47,38,30,32,24,17,88,61,32,30.52,30.26,10,2,18,0.00
2013-3-21,42,36,34,33,25,12,89,66,31,30.26,29.94,11,4,22,0.25
2013-3-22,43,38,34,39,35,31,90,88,84,30.09,29.97,6,1,17,0.09
2013-3-23,42,39,37,40,37,34,91,90,88,30.07,29.85,6,2,13,0.03
2013-3-24,41,33,28,38,29,22,91,86,76,30.30,29.81,15,7,29,0.08
2013-3-25,36,30,24,26,22,19,82,75,62,30.53,30.29,11,5,20,0.00
2013-3-26,45,33,24,26,23,20,88,68,43,30.62,30.47,6,1,12,0.00
2013-3-27,58,46,31,33,28,22,71,51,32,30.47,30.26,11,3,16,0.00
2013-3-28,69,56,45,52,42,31,73,58,50,30.33,30.21,14,5,21,0.00
2013-3-29,67,59,53,58,53,48,88,80,68,30.30,30.19,7,2,12,0.15
2013-3-30,69,60,52,59,54,49,89,83,68,30.23,29.98,16,3,35,0.58
2013-3-31,68,58,48,54,47,40,89,72,37,30.10,29.97,15,1,30,0.14
2013-4-1,60,48,42,44,40,31,89,75,54,30.33,30.08,9,3,18,0.00
2013-4-2,42,38,36,37,35,31,90,86,64,30.41,30.31,7,3,17,0.53
2013-4-3,51,43,38,38,30,26,86,62,44,30.42,30.31,14,2,23,0.00
2013-4-4,59,48,41,40,37,34,88,68,42,30.31,30.19,7,1,13,0.02
2013-4-5,69,52,34,47,38,31,88,63,33,30.34,30.09,5,1,10,0.00
2013-4-6,72,62,54,52,46,38,71,57,43,30.10,29.89,20,8,33,0.00
2013-4-7,74,64,53,62,55,49,86,75,61,30.01,29.83,13,5,22,0.00
2013-4-8,71,66,61,63,59,56,86,79,72,29.89,29.79,15,7,21,0.17
2013-4-9,78,71,64,66,61,57,80,71,58,29.85,29.76,13,7,20,0.00
2013-4-10,73,49,40,63,45,37,91,87,65,30.03,29.79,12,4,24,1.21
2013-4-11,51,40,34,36,32,30,91,76,47,30.05,29.91,9,2,17,0.03
2013-4-12,56,45,35,38,34,29,85,67,46,30.17,29.96,9,2,18,0.00
2013-4-13,69,55,41,52,43,35,81,65,45,30.19,29.89,13,4,21,0.00
2013-4-14,76,66,57,56,51,46,76,59,42,29.89,29.61,17,8,30,0.00
2013-4-15,78,64,52,67,55,43,86,72,56,29.95,29.76,11,3,22,0.00
2013-4-16,68,57,51,59,52,47,89,84,74,30.09,29.95,7,2,17,0.01
2013-4-17,80,71,56,70,63,52,88,78,65,30.05,29.67,13,6,22,0.03
2013-4-18,72,49,38,66,44,28,92,82,66,30.16,29.59,13,7,27,3.25
2013-4-19,56,44,34,36,30,26,77,59,36,30.27,30.14,10,4,23,0.00
2013-4-20,66,53,39,43,37,32,78,56,37,30.34,30.20,8,1,11,0.00
2013-4-21,67,58,50,45,42,38,72,55,38,30.37,30.22,10,4,20,0.00
2013-4-22,71,60,49,50,44,39,70,56,42,30.29,29.99,9,4,17,0.00
2013-4-23,62,48,36,52,43,34,91,84,58,30.28,29.91,8,3,16,0.16
2013-4-24,53,42,35,35,32,27,90,70,38,30.47,30.27,7,1,17,0.00
2013-4-25,68,52,34,43,34,28,83,55,29,30.52,30.32,3,0,6,0.00
2013-4-26,58,52,49,49,46,37,88,80,48,30.42,30.20,10,4,26,0.55
2013-4-27,56,53,52,53,50,48,92,89,88,30.23,30.09,9,2,17,0.10
2013-4-28,75,61,50,58,52,47,90,74,46,30.17,29.97,5,1,9,0.00
2013-4-29,82,69,56,66,57,50,85,67,44,29.99,29.84,13,6,19,0.00
2013-4-30,79,70,60,62,55,48,80,60,34,29.94,29.87,13,5,22,0.00
2013-5-1,82,70,61,66,59,50,81,68,47,30.15,29.94,8,3,13,0.00
2013-5-2,64,47,33,58,43,31,91,87,80,30.45,30.11,9,4,20,0.37
2013-5-3,49,40,33,37,33,31,91,78,53,30.42,30.11,11,5,26,0.43
2013-5-4,46,41,37,39,36,34,90,84,72,30.17,30.00,8,2,19,0.30
2013-5-5,57,48,35,50,43,32,90,83,71,30.25,30.16,5,1,15,0.01
2013-5-6,62,53,47,54,49,43,88,84,73,30.24,30.14,4,1,11,0.00
2013-5-7,76,61,44,59,51,42,92,71,45,30.22,30.08,3,0,7,0.01
2013-5-8,77,66,58,64,56,51,85,73,52,30.17,29.98,10,2,16,0.08
2013-5-9,75,65,59,65,59,55,86,80,65,30.07,29.96,11,2,28,2.28
2013-5-10,68,62,52,60,55,47,84,79,68,30.17,30.00,8,2,16,0.33
2013-5-11,73,59,46,59,47,38,83,67,34,30.33,30.17,7,1,18,0.00
2013-5-12,69,54,40,51,40,32,84,64,32,30.41,30.26,4,0,9,0.02
2013-5-13,64,54,50,50,45,43,80,73,59,30.29,30.24,10,1,18,0.00
2013-5-14,84,72,59,64,57,51,77,61,36,30.15,30.02,7,4,14,0.00
2013-5-15,74,67,62,67,60,53,83,76,67,30.06,29.93,9,4,17,0.34
2013-5-16,69,65,61,61,57,53,79,76,74,29.98,29.91,5,1,10,0.40
2013-5-17,81,70,60,68,60,51,77,71,59,30.03,29.95,3,0,8,0.01
2013-5-18,84,76,66,75,66,56,76,73,68,30.00,29.84,8,3,13,0.00
2013-5-19,84,77,68,70,66,61,77,69,54,29.94,29.69,11,6,20,0.02
2013-5-20,77,70,64,68,60,53,78,72,65,29.89,29.69,10,2,18,0.09
2013-5-21,66,62,59,56,51,47,72,68,65,29.99,29.71,9,2,25,0.46
2013-5-22,74,64,52,61,52,42,72,65,59,30.04,29.90,5,1,14,0.00
2013-5-23,73,64,55,62,53,43,72,67,58,30.26,30.04,3,1,9,0.00
2013-5-24,78,67,57,65,56,47,72,69,63,30.36,30.23,8,3,17,0.00
2013-5-25,80,70,60,68,60,51,73,70,65,30.32,30.13,8,3,13,0.00
2013-5-26,80,73,67,69,62,53,71,67,60,30.20,30.04,9,3,17,0.00
2013-5-27,82,75,68,70,62,53,71,66,55,30.06,29.86,11,6,18,0.00
2013-5-28,80,74,71,69,64,60,72,69,65,29.94,29.82,12,6,20,0.00
2013-5-29,78,74,70,68,64,60,72,71,69,29.95,29.80,8,4,16,0.00
2013-5-30,78,69,63,66,54,46,72,59,48,29.92,29.78,13,4,20,1.91
2013-5-31,83,76,65,70,59,47,66,56,47,29.89,29.72,10,4,19,0.05
2013-6-1,78,70,62,66,53,44,68,56,45,30.09,29.73,7,1,21,0.22
2013-6-2,69,62,54,57,47,37,67,59,47,30.17,30.08,4,0,11,0.00
2013-6-3,78,64,47,64,50,31,70,60,47,30.17,29.99,1,0,8,0.01
2013-6-4,78,69,63,66,55,46,68,61,47,30.08,29.98,6,1,16,0.02
2013-6-5,79,70,65,65,54,42,66,57,40,30.10,29.96,8,1,25,0.78
2013-6-6,74,67,59,62,49,39,66,53,40,30.05,29.99,3,0,9,0.01
2013-6-7,77,66,53,60,48,33,68,53,42,30.11,30.00,4,0,11,0.00
2013-6-8,79,69,57,65,55,40,69,62,51,30.05,29.92,1,0,8,0.00
2013-6-9,82,73,66,66,59,49,68,61,46,30.00,29.92,5,0,13,0.02
2013-6-10,89,78,65,74,64,51,67,63,52,30.01,29.93,4,0,16,0.00
2013-6-11,89,80,71,75,65,52,67,60,50,30.06,29.96,5,1,11,0.00
2013-6-12,89,81,74,73,65,51,67,59,44,30.05,29.95,10,3,17,0.00
2013-6-13,90,80,72,72,62,45,66,54,38,30.10,29.99,2,0,8,0.00
2013-6-14,90,80,70,76,64,49,65,58,46,30.09,29.98,2,0,7,0.00
2013-6-15,87,77,70,74,60,43,66,56,38,30.11,30.00,6,1,16,0.57
2013-6-16,88,77,70,73,55,43,63,47,36,30.08,29.96,4,0,11,0.00
2013-6-17,74,70,67,49,43,40,46,38,36,30.07,29.94,6,1,13,0.85
2013-6-18,86,75,65,70,53,39,62,47,34,30.13,30.03,2,0,7,0.01
2013-6-19,85,76,64,69,57,37,63,52,35,30.13,30.03,2,0,8,0.00
2013-6-20,89,79,69,74,62,45,64,57,42,30.14,30.03,6,1,11,0.00
2013-6-21,90,82,76,75,63,46,64,53,35,30.13,30.04,6,2,11,0.00
2013-6-22,88,81,74,73,64,48,64,56,40,30.11,29.98,6,2,12,0.00
2013-6-23,90,82,75,74,64,49,65,56,39,30.05,29.94,7,3,15,0.00
2013-6-24,89,81,74,73,65,52,65,58,45,30.10,29.99,6,2,11,0.00
2013-6-25,87,81,76,72,65,54,65,59,46,30.03,29.89,11,4,20,0.00
2013-6-26,93,83,76,78,66,50,66,58,36,29.99,29.89,7,3,15,0.24
2013-6-27,96,85,74,78,62,43,62,48,32,30.04,29.91,1,0,4,0.00
2013-6-28,92,82,72,73,64,51,67,56,43,30.01,29.87,4,0,10,0.00
2013-6-29,86,76,63,64,56,38,67,50,34,29.98,29.88,9,1,24,0.00
2013-6-30,80,70,62,64,56,41,66,60,45,30.06,29.92,4,1,16,0.00
2013-7-1,81,70,61,62,50,36,67,50,35,30.15,30.06,4,0,17,0.00
2013-7-2,82,69,54,60,48,32,66,48,35,30.19,30.13,2,0,11,0.00
2013-7-3,85,71,57,60,50,36,65,49,30,30.20,30.08,1,0,7,0.00
2013-7-4,88,74,63,64,57,49,66,55,35,30.15,30.04,2,0,8,0.00
2013-7-5,90,78,63,64,59,49,66,54,34,30.11,29.99,3,0,11,0.00
2013-7-6,88,76,66,67,62,54,67,60,41,30.10,30.00,0,0,5,0.00
2013-7-7,93,81,72,70,64,60,67,57,34,30.11,30.03,0,0,7,0.00
2013-7-8,93,82,72,73,67,58,67,60,46,30.16,30.07,1,0,5,0.00
2013-7-9,95,84,75,73,66,54,66,56,45,30.14,30.01,3,0,11,0.00
2013-7-10,99,86,73,75,67,51,66,56,41,30.08,29.95,5,0,10,0.00
2013-7-11,96,84,73,76,64,47,64,52,38,30.07,29.97,3,0,12,0.00
2013-7-12,95,83,72,73,66,60,67,59,38,30.09,30.01,4,1,11,0.00
2013-7-13,93,80,67,69,62,57,69,56,42,30.11,30.01,5,1,9,0.00
2013-7-14,89,79,68,63,59,52,69,52,29,30.12,30.02,7,2,18,0.00
2013-7-15,88,78,68,71,64,52,69,62,46,30.25,30.12,8,2,17,0.00
2013-7-16,90,76,70,71,50,41,61,40,32,30.35,30.24,6,1,12,0.21
2013-7-17,93,81,72,71,59,42,64,47,32,30.39,30.25,4,1,10,0.00
2013-7-18,95,82,69,73,61,41,64,49,36,30.29,30.08,5,0,11,0.00
2013-7-19,97,82,72,72,64,48,65,54,37,30.11,29.96,4,0,12,0.00
2013-7-20,94,80,70,74,60,41,65,50,35,30.03,29.89,6,1,18,0.00
2013-7-21,85,76,71,70,52,42,60,44,32,30.03,29.91,5,1,13,0.79
2013-7-22,88,78,67,74,58,41,64,52,34,30.10,29.90,8,1,21,0.76
2013-7-23,96,85,74,79,66,44,63,53,35,29.99,29.84,10,1,27,0.60
2013-7-24,87,76,69,72,54,40,61,47,33,30.10,29.89,10,1,16,0.64
2013-7-25,87,77,66,71,54,38,63,47,33,30.16,30.09,3,0,8,0.01
2013-7-26,76,73,68,53,44,39,46,36,33,30.12,30.06,4,1,7,0.80
2013-7-27,81,72,65,65,51,39,65,48,34,30.16,30.05,4,0,11,0.00
2013-7-28,80,70,64,67,52,38,65,54,37,30.14,30.07,4,0,15,0.00
2013-7-29,86,78,69,73,60,43,65,54,37,30.13,30.03,7,3,16,0.08
2013-7-30,87,79,71,73,56,40,64,46,32,30.12,30.05,7,1,17,1.10
2013-7-31,78,75,73,47,43,41,33,32,31,30.14,30.08,0,0,4,0.00
2013-8-1,89,78,67,71,55,37,63,47,32,30.18,30.04,4,0,10,0.00
2013-8-2,87,80,74,72,59,46,62,50,33,30.06,29.93,5,2,12,0.05
2013-8-3,86,79,69,71,56,39,63,47,33,30.15,29.95,6,2,14,0.54
2013-8-4,78,76,74,54,47,42,45,36,32,30.21,30.06,5,1,13,0.36
2013-8-5,92,82,74,77,60,42,63,48,32,30.10,29.90,5,2,11,0.16
2013-8-6,91,83,74,77,66,47,66,57,38,29.96,29.85,6,2,12,0.00
2013-8-7,87,80,75,71,56,43,61,43,30,30.03,29.87,6,1,11,0.59
2013-8-8,83,76,69,66,51,39,60,42,32,30.05,29.93,7,1,24,3.67
2013-8-9,85,76,70,72,52,39,64,44,32,30.13,29.99,6,0,10,0.20
2013-8-10,85,75,67,72,53,37,65,47,32,30.20,30.11,5,1,12,0.00
2013-8-11,89,78,70,74,54,39,64,45,31,30.17,30.08,2,0,7,0.00
2013-8-12,83,76,72,69,49,41,64,39,31,30.17,30.03,5,0,17,0.41
2013-8-13,80,73,67,66,44,38,65,36,32,30.15,30.06,6,0,11,0.26
2013-8-14,79,70,62,65,50,35,66,49,34,30.24,30.15,7,1,13,0.00
2013-8-15,81,68,58,63,49,32,66,52,37,30.23,30.10,3,0,9,0.01
2013-8-16,79,70,62,64,55,39,68,61,42,30.23,30.12,1,0,7,0.00
2013-8-17,79,67,57,64,47,30,65,49,34,30.26,30.15,5,0,12,0.00
2013-8-18,83,72,61,68,51,33,65,49,33,30.24,30.14,3,0,8,0.01
2013-8-19,86,73,62,69,52,33,66,47,33,30.22,30.09,2,0,6,0.00
2013-8-20,85,75,65,70,56,38,66,53,36,30.18,30.09,3,0,6,0.00
2013-8-21,89,78,68,73,62,48,67,58,49,30.19,30.11,5,1,9,0.00
2013-8-22,92,79,70,74,65,53,67,62,45,30.20,30.08,3,0,8,0.00
2013-8-23,92,80,68,75,61,38,65,54,33,30.16,30.06,2,0,7,0.00
2013-8-24,90,81,72,74,63,45,66,56,38,30.22,30.11,4,0,11,0.00
2013-8-25,92,82,72,76,64,44,65,57,36,30.28,30.19,4,0,8,0.00
2013-8-26,90,80,72,74,62,42,64,55,33,30.28,30.16,3,1,8,0.00
2013-8-27,88,78,69,72,59,41,64,52,35,30.21,30.10,5,1,9,0.00
2013-8-28,91,79,70,75,59,44,64,51,37,30.16,30.09,4,1,9,0.00
2013-8-29,95,82,73,76,63,45,64,53,36,30.15,30.05,5,0,11,0.00
2013-8-30,94,83,74,76,67,53,65,58,46,30.08,29.94,5,1,11,0.00
2013-8-31,96,83,75,78,67,57,65,58,45,29.98,29.86,4,1,10,0.00
2013-9-1,94,79,74,75,62,42,66,56,32,29.99,29.87,8,1,17,0.09
2013-9-2,85,75,65,68,53,38,64,47,31,30.09,29.98,5,1,12,0.00
2013-9-3,87,73,60,67,50,31,64,46,32,30.17,30.07,4,0,8,0.01
2013-9-4,89,75,64,69,55,36,66,51,36,30.24,30.13,2,0,7,0.00
2013-9-5,90,76,64,69,60,47,66,58,40,30.26,30.17,3,0,8,0.00
2013-9-6,92,77,64,71,60,43,67,56,40,30.22,30.08,3,0,6,0.00
2013-9-7,96,80,69,75,64,55,67,59,40,30.12,30.00,4,1,11,0.00
2013-9-8,95,82,70,74,65,55,66,58,41,30.04,29.95,5,1,11,0.00
2013-9-9,93,80,70,71,64,54,67,58,39,30.08,29.99,6,1,12,0.00
2013-9-10,92,79,70,72,64,58,67,60,37,30.20,30.06,6,1,13,0.00
2013-9-11,94,80,70,72,63,54,66,57,41,30.23,30.11,4,0,8,0.00
2013-9-12,92,79,68,72,59,37,63,52,31,30.18,30.07,5,1,13,0.00
2013-9-13,83,72,60,57,54,48,67,53,37,30.17,30.06,7,2,13,0.00
2013-9-14,82,68,55,60,50,35,66,55,41,30.18,30.06,6,1,13,0.00
2013-9-15,89,74,61,68,59,50,67,60,47,30.14,30.07,6,1,10,0.00
2013-9-16,77,72,69,62,48,37,66,43,31,30.28,30.12,4,1,10,0.16
2013-9-17,80,74,68,66,50,38,63,45,31,30.23,30.08,4,1,10,0.07
2013-9-18,89,79,71,72,62,47,64,58,42,30.10,29.98,7,3,12,0.00
2013-9-19,90,79,71,72,64,40,65,60,32,30.06,29.92,8,3,20,0.23
2013-9-20,71,67,56,59,44,36,69,47,31,30.08,30.00,4,0,12,0.63
2013-9-21,76,61,48,57,41,24,69,48,35,30.15,30.03,3,0,10,0.00
2013-9-22,77,64,51,56,45,27,70,52,36,30.10,29.96,4,0,10,0.01
2013-9-23,61,58,56,51,47,42,70,67,62,30.01,29.98,2,0,8,0.00
2013-9-24,77,68,59,60,56,44,70,65,54,29.98,29.93,6,2,16,0.00
2013-9-25,81,66,52,64,47,27,67,51,33,30.01,29.91,3,0,9,0.00
2013-9-26,87,73,61,65,57,46,69,58,40,30.03,29.93,5,1,15,0.00
2013-9-27,85,75,64,66,60,50,70,61,45,30.08,29.97,8,3,13,0.00
2013-9-28,80,69,60,68,49,32,70,52,31,30.17,29.96,11,4,18,0.75
2013-9-29,76,63,56,60,42,29,71,48,35,30.18,30.04,5,1,13,0.01
2013-9-30,80,68,57,66,48,31,70,49,33,30.05,29.94,4,1,9,0.01
2013-10-1,84,74,66,70,54,36,69,50,32,30.08,29.98,5,1,9,0.00
2013-10-2,83,74,69,70,53,38,67,49,32,30.11,29.98,6,2,11,0.01
2013-10-3,83,75,69,70,56,38,67,52,32,30.02,29.91,9,5,18,0.00
2013-10-4,84,76,71,71,58,42,66,54,35,29.99,29.91,8,4,16,0.00
2013-10-5,74,57,48,59,37,25,70,49,33,30.20,29.97,6,1,19,1.43
2013-10-6,63,53,43,47,39,24,71,60,45,30.16,30.09,8,2,21,0.01
2013-10-7,72,55,41,53,36,19,69,49,36,30.30,30.15,3,0,10,0.00
2013-10-8,72,60,50,53,46,29,70,59,43,30.27,30.16,8,1,14,0.00
2013-10-9,76,61,48,54,47,30,71,60,34,30.24,30.14,4,1,8,0.00
2013-10-10,77,64,52,61,51,39,71,64,51,30.21,30.01,6,2,10,0.00
2013-10-11,76,68,59,64,54,42,69,62,49,30.02,29.93,11,4,23,0.00
2013-10-12,70,65,59,59,42,33,69,45,33,30.28,29.97,6,1,14,1.04
2013-10-13,72,63,56,58,51,36,73,65,46,30.43,30.28,7,2,14,0.12
2013-10-14,66,62,59,55,47,35,71,58,36,30.35,30.06,9,4,17,0.24
2013-10-15,65,58,52,47,36,28,69,45,33,30.20,29.99,6,2,12,0.12
2013-10-16,58,51,42,46,39,24,72,64,46,30.28,30.15,5,1,11,0.00
2013-10-17,64,51,39,48,34,18,70,52,37,30.22,30.10,4,0,9,0.00
2013-10-18,60,49,42,50,32,20,70,52,40,30.24,30.10,5,1,13,0.25
2013-10-19,59,46,37,43,30,17,73,54,41,30.30,30.16,5,1,13,0.00
2013-10-20,57,45,42,45,34,30,73,68,63,30.17,30.12,6,1,11,0.00
2013-10-21,56,50,39,45,38,21,74,65,47,30.25,30.08,4,1,11,0.00
2013-10-22,68,51,37,50,35,19,73,55,42,30.24,30.09,7,1,20,0.00
2013-10-23,63,48,37,44,34,19,73,59,43,30.33,30.14,1,0,4,0.00
2013-10-24,54,46,36,38,33,23,74,61,49,30.57,30.23,7,1,15,0.00
2013-10-25,58,44,34,36,30,23,75,60,37,30.64,30.36,3,1,13,0.00
2013-10-26,64,52,43,54,42,26,77,68,43,30.36,30.23,6,1,14,0.00
2013-10-27,68,51,39,47,33,21,72,51,34,30.25,30.11,3,0,9,0.01
2013-10-28,67,58,47,56,41,25,71,54,35,30.29,30.16,6,2,11,0.00
2013-10-29,69,65,59,50,42,33,55,43,37,30.24,30.07,11,6,21,0.06
2013-10-30,68,66,63,47,40,35,47,38,32,30.13,29.89,13,6,21,1.85
2013-10-31,72,61,49,61,38,28,69,45,33,29.89,29.60,11,4,29,0.28
2013-11-1,67,54,43,49,38,26,72,57,40,30.16,29.88,3,0,14,0.01
2013-11-2,56,48,38,41,37,24,76,66,50,30.36,30.15,7,2,18,0.01
2013-11-3,60,49,36,43,36,22,73,62,46,30.36,30.14,10,4,20,0.00
2013-11-4,61,56,52,51,44,31,72,67,39,30.27,30.12,12,6,22,0.01
2013-11-5,64,59,55,39,32,28,42,37,35,30.25,30.05,10,6,18,0.47
2013-11-6,63,45,33,38,27,16,72,52,33,30.51,30.00,8,3,19,0.42
2013-11-7,60,44,30,42,28,12,72,54,40,30.62,30.50,2,0,5,0.00
2013-11-8,64,52,40,43,38,31,73,61,39,30.50,30.19,11,5,24,0.00
2013-11-9,65,54,46,48,43,38,73,66,43,30.41,30.21,8,2,13,0.00
2013-11-10,68,56,47,47,42,33,73,60,43,30.50,30.38,8,1,15,0.00
2013-11-11,66,55,42,55,45,32,73,69,59,30.56,30.29,9,3,24,0.00
2013-11-12,42,32,23,33,21,17,78,65,42,30.91,30.56,9,3,24,0.00
2013-11-13,50,34,21,24,20,15,83,60,32,30.88,30.48,8,3,13,0.00
2013-11-14,51,41,28,35,26,21,76,57,37,30.48,30.18,13,5,19,0.00
2013-11-15,59,51,44,48,39,32,74,65,46,30.19,29.95,10,6,18,0.01
2013-11-16,70,64,54,60,48,33,70,56,42,29.95,29.68,19,13,31,0.03
2013-11-17,72,66,52,61,43,25,69,46,27,30.18,29.61,18,8,31,0.00
2013-11-18,62,50,37,39,30,24,74,49,24,30.40,30.16,7,1,16,0.00
2013-11-19,60,52,46,31,27,22,49,38,25,30.38,30.16,11,5,19,0.00
2013-11-20,59,53,47,41,30,18,56,41,28,30.17,30.01,15,7,22,0.00
2013-11-21,57,50,36,45,29,15,72,44,35,30.44,30.09,12,4,21,0.62
2013-11-22,36,32,31,22,16,11,65,51,41,30.70,30.44,10,6,20,0.01
2013-11-23,39,32,23,26,20,13,77,62,46,30.86,30.69,8,4,19,0.00
2013-11-24,32,26,19,19,15,12,76,63,45,30.87,30.53,8,1,15,0.00
2013-11-25,37,33,29,30,25,18,81,71,56,30.52,30.36,5,1,8,0.02
2013-11-26,45,35,27,32,26,19,77,69,53,30.53,30.31,14,4,23,0.00
2013-11-27,36,26,19,19,15,12,79,64,40,30.63,30.49,7,1,16,0.00
2013-11-28,54,37,23,31,24,16,82,61,41,30.62,30.46,10,2,16,0.00
2013-11-29,53,41,30,31,26,22,83,59,29,30.67,30.46,7,2,12,0.00
2013-11-30,58,47,37,47,36,27,75,67,53,30.48,30.25,14,6,22,0.00
2013-12-1,55,49,39,42,30,18,61,47,38,30.27,30.02,6,1,9,0.01
2013-12-2,64,49,37,52,30,16,72,48,36,30.02,29.79,6,1,11,0.00
2013-12-3,67,54,42,53,35,19,74,50,37,29.80,29.64,8,3,12,0.02
2013-12-4,58,45,30,49,30,17,73,56,41,30.14,29.63,11,4,19,0.00
2013-12-5,30,24,20,23,16,10,78,72,64,30.48,30.13,9,4,18,0.00
2013-12-6,20,18,12,14,10,6,79,71,64,30.77,30.43,6,2,15,0.00
2013-12-7,22,14,4,15,8,0,82,74,61,30.85,30.50,7,1,14,0.01
2013-12-8,30,26,22,18,14,11,78,62,54,30.50,30.19,8,3,14,0.00
2013-12-9,28,23,19,19,16,11,79,74,65,30.56,30.37,8,2,13,0.00
2013-12-10,32,21,9,20,13,3,79,71,60,30.64,30.45,9,2,13,0.01
2013-12-11,35,26,19,26,16,8,76,65,53,30.81,30.48,9,1,16,0.00
2013-12-12,40,28,15,28,20,9,79,72,56,30.80,30.44,9,3,12,0.03
2013-12-13,37,35,30,30,24,16,77,65,43,30.44,29.99,12,5,19,0.64
2013-12-14,38,32,23,24,17,12,76,55,42,30.42,29.99,12,4,21,0.10
2013-12-15,52,34,20,37,24,10,77,66,51,30.44,30.28,9,3,13,0.00
2013-12-16,62,46,34,39,34,27,78,64,38,30.29,30.20,9,5,14,0.00
2013-12-17,56,44,34,39,32,24,78,65,41,30.45,30.27,10,2,18,0.00
2013-12-18,62,49,33,41,35,26,78,59,40,30.43,30.07,16,6,25,0.00
2013-12-19,61,56,51,53,48,40,75,72,64,30.07,29.81,18,11,26,0.00
2013-12-20,64,42,30,55,28,14,77,58,49,30.04,29.80,13,5,22,0.00
2013-12-21,35,33,31,15,14,13,50,45,43,29.97,29.65,7,1,16,0.86
2013-12-22,33,29,26,22,18,13,79,62,44,30.55,29.90,8,4,19,0.00
2013-12-23,28,23,14,22,17,7,81,78,75,30.78,30.55,7,1,13,0.00
2013-12-24,41,27,13,31,20,7,83,74,63,30.77,30.42,10,3,18,0.02
2013-12-25,42,33,26,35,25,12,80,72,54,30.57,30.46,4,1,10,0.00
2013-12-26,50,35,24,37,22,9,77,59,41,30.58,30.46,9,3,14,0.01
2013-12-27,57,41,30,38,29,20,77,65,43,30.58,30.45,8,4,12,0.00
2013-12-28,55,43,33,38,33,26,81,69,40,30.45,30.08,10,4,15,0.00
2013-12-29,43,30,21,36,23,15,80,76,58,30.46,30.08,11,5,20,0.02
2013-12-30,37,24,14,24,17,9,87,73,54,30.56,30.42,5,1,10,0.00
2013-12-31,52,36,22,31,23,15,79,63,38,30.57,30.32,12,5,18,0.00
2014-1-1,52,39,20,36,27,12,79,63,45,30.34,30.03,12,7,23,0.00
2014-1-2,22,16,10,14,10,5,81,76,65,30.69,30.35,10,3,18,0.00